Wind_Speed
5 5 6 6 6 7 7 7 7 8 8 8 9 9 10 10 11 11 11 11 12 12 12 12 12 13 14 15 16 17 18 18 18 17 17 17 17 17 17 18 18 17 17
6 6 7 7 7 7 7 7 8 9 9 9 9 9 10 10 11 11 11 11 11 12 12 12 13 14 15 15 15 16 17 18 18 18 17 17 17 17 17 18 18 18 17
7 7 8 8 8 8 9 9 9 9 10 10 10 10 10 11 11 11 11 12 13 13 13 13 13 14 15 14 15 16 17 17 18 18 18 18 18 18 18 18 18 18 18
8 9 9 9 9 10 10 10 10 10 10 10 11 11 11 12 12 12 13 13 13 13 13 14 14 14 14 14 15 16 17 17 18 18 18 18 18 18 18 18 18 18 17
10 10 11 11 11 11 11 12 12 12 11 12 11 11 12 12 13 13 13 14 14 14 15 15 15 15 15 15 15 16 16 16 17 18 18 18 18 18 19 18 18 17 17
11 11 11 11 11 12 12 12 13 13 13 13 13 13 13 13 13 14 14 15 15 15 15 15 15 15 15 15 16 16 16 17 17 17 18 18 18 19 19 19 19 19 18
12 12 12 12 12 12 12 13 13 14 13 13 13 13 14 14 14 14 14 14 15 15 16 16 16 17 16 16 16 16 17 18 18 18 18 18 18 19 19 19 19 19 19
13 13 13 13 13 13 13 13 14 14 14 14 14 14 14 14 14 15 15 15 15 15 15 16 17 17 16 16 16 16 17 18 18 19 19 19 18 19 19 19 19 19 19
13 13 14 14 14 14 14 14 14 14 15 15 15 15 15 15 15 15 15 15 15 16 16 16 16 16 17 17 17 17 17 18 18 19 19 19 19 19 20 20 20 20 20
14 14 14 15 15 15 15 15 15 15 15 15 15 15 16 16 16 16 16 16 15 15 16 16 16 16 17 17 17 17 17 18 18 19 19 19 20 20 20 20 21 21 21
14 15 15 16 16 16 16 16 15 15 15 15 16 16 16 16 16 16 16 16 16 16 16 16 17 17 17 18 18 18 18 18 18 19 19 19 20 20 20 20 21 21 21
15 15 16 16 16 16 16 16 16 16 16 16 16 17 17 17 17 17 17 17 17 17 17 17 18 18 18 18 19 19 19 19 19 19 19 19 20 20 20 20 20 21 21
14 15 15 15 16 15 16 16 16 17 17 17 17 17 18 18 18 18 18 18 18 18 18 19 18 18 18 18 19 19 19 19 19 19 19 19 19 20 20 20 21 21 21
15 15 15 15 16 15 15 15 16 16 17 17 18 18 18 18 18 19 19 19 19 20 20 20 20 20 19 19 20 19 20 19 19 19 19 19 19 20 20 21 21 21 22
16 16 16 16 16 16 16 16 16 17 17 18 18 19 19 19 19 20 20 20 21 21 20 21 21 21 20 21 21 21 21 21 21 20 20 20 20 20 21 21 21 22 22
16 16 17 17 17 17 17 17 18 18 18 18 18 19 19 20 20 20 20 20 21 21 21 21 21 22 22 22 22 22 22 22 22 22 21 21 21 21 21 21 22 22 22
17 18 17 17 17 18 17 18 18 18 19 19 19 20 20 21 21 21 21 21 21 21 22 22 22 22 22 22 22 23 23 24 24 23 22 22 22 22 22 22 23 23 23
18 18 18 18 18 18 19 19 19 20 20 20 20 21 21 21 21 21 21 22 22 22 23 22 22 23 23 23 23 24 24 24 25 25 25 24 23 23 23 23 23 23 23
19 19 19 19 20 20 20 20 20 21 21 21 21 21 22 22 22 22 23 23 23 24 24 23 23 24 24 24 24 24 24 25 25 25 25 25 25 25 24 24 24 24 24
20 20 20 20 20 21 21 21 21 21 21 22 22 22 23 23 23 24 24 24 24 25 25 24 24 25 25 25 25 25 25 26 26 26 26 26 26 26 25 25 25 25 25
21 21 21 21 21 21 21 21 21 21 22 23 23 23 24 24 24 24 24 25 25 25 25 25 25 26 26 26 26 26 26 26 27 27 27 27 27 27 27 26 26 26 25
21 21 22 22 22 22 22 23 23 22 23 24 24 24 25 25 25 25 25 26 26 26 25 25 25 26 26 26 26 26 27 27 27 27 28 28 28 28 29 28 28 28 27
22 22 23 23 23 23 23 23 24 24 24 25 25 25 25 26 26 26 26 26 26 25 26 26 26 26 27 27 27 27 27 28 28 29 29 29 28 29 29 29 29 29 28
22 23 23 23 23 23 24 25 25 25 26 26 26 26 26 26 26 26 26 26 26 26 27 27 27 27 28 28 28 28 28 29 29 30 30 30 29 29 29 29 30 30 29
23 24 24 24 24 24 25 26 26 26 26 26 26 26 26 26 26 26 27 27 27 28 28 28 28 29 29 29 29 29 29 29 30 30 30 30 30 30 30 30 30 30 30
25 25 25 25 25 26 26 26 26 26 26 25 26 26 26 27 27 27 28 28 28 29 30 30 30 30 30 30 30 30 31 31 31 31 31 32 31 31 31 30 31 31 30
Wind_Direction
292 288 285 283 283 281 279 276 274 272 271 270 267 268 265 260 261 261 258 260 261 262 265 263 261 259 258 258 259 257 256 256 256 258 260 262 262 263 262 262 262 262 262
292 290 285 282 283 280 277 278 276 272 272 270 270 271 270 266 264 263 262 261 259 261 263 265 265 262 260 260 260 259 257 257 260 259 260 261 262 264 263 264 263 262 262
287 288 288 286 283 281 278 280 281 277 274 272 270 270 269 267 265 264 264 265 265 267 266 266 267 267 264 261 261 260 259 260 260 260 260 261 263 264 265 263 264 263 263
285 285 287 288 285 282 280 281 281 280 278 276 273 270 267 264 263 263 263 267 267 269 270 269 269 268 265 264 263 263 261 261 262 261 260 261 262 263 265 264 264 263 263
290 290 289 288 286 284 280 279 276 277 277 275 273 270 268 264 265 265 265 267 268 268 270 270 269 267 267 267 268 266 264 264 264 263 262 262 262 262 263 264 265 265 264
294 292 292 292 290 287 282 278 275 274 274 273 271 270 268 267 269 267 267 265 267 268 268 269 269 269 268 268 268 269 268 267 267 265 262 262 263 262 263 264 266 266 266
294 292 292 293 293 289 286 281 277 273 271 272 271 270 268 267 267 267 266 266 268 269 268 268 270 270 270 270 269 270 270 269 269 268 265 264 265 264 264 264 264 266 268
295 292 289 289 290 289 287 283 279 275 271 269 268 269 269 270 268 267 266 267 268 268 267 268 271 270 269 269 269 270 270 269 269 268 267 267 266 266 265 264 264 266 267
298 295 292 291 290 288 286 284 282 278 273 269 268 269 269 269 270 268 267 268 268 268 267 269 269 270 269 269 269 269 271 271 271 269 268 266 265 265 265 266 266 267 268
301 299 296 292 289 289 287 284 282 279 274 269 269 269 271 269 270 270 269 268 268 268 267 268 269 270 270 271 271 271 271 271 272 271 269 267 267 267 266 266 267 267 268
299 298 297 295 292 290 288 286 283 281 276 272 270 270 271 269 269 268 269 270 269 269 269 269 270 270 270 269 269 271 272 271 273 272 270 269 269 269 267 267 267 268 269
297 296 296 296 293 290 287 285 283 281 278 274 271 270 269 270 269 268 267 267 268 270 271 271 270 270 270 269 270 271 272 272 274 273 271 272 271 269 268 268 268 269 270
297 296 295 296 296 292 289 285 282 280 278 276 273 271 270 270 270 269 269 267 267 269 270 270 270 271 271 271 271 272 272 273 273 272 271 273 273 271 269 269 270 270 271
295 295 295 296 295 293 291 289 286 281 280 277 275 273 272 271 270 269 269 269 268 269 270 270 271 271 272 271 271 272 273 273 272 271 272 274 273 272 271 270 270 270 271
294 295 295 294 292 292 291 289 286 284 284 281 279 278 277 275 273 270 270 269 269 269 269 271 271 271 272 273 272 271 271 272 273 272 272 272 272 272 273 272 271 271 271
297 295 294 293 292 291 290 289 286 284 283 281 281 280 278 277 276 273 272 271 270 270 270 271 271 271 271 272 272 271 271 271 272 272 272 272 272 272 272 272 272 273 273
298 296 295 293 292 290 289 290 290 288 285 283 282 280 278 277 277 275 274 273 272 271 271 271 272 273 271 272 272 272 272 271 270 270 271 272 271 272 272 272 272 272 273
297 297 295 293 292 291 291 291 289 287 286 286 284 281 280 279 277 276 275 275 274 272 271 272 272 272 272 273 274 274 274 273 271 270 270 271 271 273 273 274 273 272 273
298 299 299 296 292 291 290 291 289 287 285 285 285 284 281 280 279 277 277 277 275 274 273 272 272 272 274 274 275 274 274 274 273 272 272 272 272 273 274 274 274 273 273
297 298 298 296 295 293 293 293 293 289 286 285 284 284 281 279 279 278 277 277 276 275 274 272 272 273 275 275 274 274 274 274 274 273 273 273 273 273 272 273 273 273 271
294 297 297 296 295 295 295 295 296 292 289 286 285 285 283 281 279 279 278 277 277 275 274 273 272 275 276 276 276 274 273 273 273 273 273 273 274 273 272 271 271 271 271
294 296 297 297 296 295 294 294 294 293 290 288 287 286 284 281 280 280 281 280 279 276 275 274 274 275 278 278 278 276 275 273 274 274 274 274 274 273 273 272 270 270 270
292 294 296 298 297 296 295 294 294 293 293 291 288 287 286 284 282 281 281 281 279 276 275 276 274 275 278 278 278 277 276 275 274 274 275 274 274 273 271 270 269 270 270
290 293 294 296 297 297 297 295 294 293 293 292 289 287 285 284 283 282 282 281 278 277 276 275 275 276 277 278 278 278 277 276 276 276 275 274 273 273 271 270 269 269 269
289 291 293 294 297 298 298 297 295 293 293 292 291 289 286 285 284 283 283 282 278 277 277 275 276 277 278 278 279 279 278 278 277 276 275 275 272 272 271 271 270 269 268
288 290 292 293 296 298 297 296 296 295 294 293 292 291 287 284 284 284 284 283 279 278 277 276 276 277 277 278 279 279 280 279 278 277 275 275 274 272 270 269 269 269 270
Height
5847 5847 5847 5847 5847 5847 5847 5847 5847 5847 5847 5847 5847 5847 5848 5848 5848 5849 5849 5850 5850 5850 5850 5850 5850 5850 5851 5851 5852 5852 5853 5854 5855 5855 5856 5856 5857 5857 5858 5858 5858 5859 5859
5845 5845 5845 5845 5845 5845 5845 5845 5845 5845 5845 5845 5845 5845 5845 5845 5846 5846 5847 5847 5847 5847 5847 5847 5847 5847 5848 5848 5848 5848 5849 5850 5851 5851 5852 5853 5853 5853 5854 5854 5854 5855 5855
5844 5843 5843 5843 5843 5842 5842 5842 5842 5842 5842 5843 5843 5843 5843 5843 5843 5844 5844 5844 5844 5844 5844 5844 5844 5844 5844 5845 5845 5845 5846 5846 5847 5847 5848 5848 5849 5849 5849 5850 5850 5851 5851
5842 5841 5841 5841 5840 5840 5840 5840 5840 5840 5840 5840 5840 5840 5840 5840 5840 5841 5841 5841 5841 5841 5841 5841 5841 5841 5841 5841 5841 5842 5842 5842 5843 5843 5844 5844 5845 5845 5846 5846 5846 5846 5847
5839 5839 5838 5838 5838 5837 5837 5837 5837 5837 5837 5837 5837 5837 5837 5837 5837 5837 5837 5837 5837 5838 5837 5837 5838 5838 5838 5838 5838 5838 5838 5838 5838 5839 5839 5840 5840 5841 5841 5841 5842 5842 5843
5836 5836 5835 5835 5835 5834 5834 5834 5834 5834 5833 5833 5833 5833 5833 5833 5833 5833 5833 5833 5834 5834 5834 5834 5834 5834 5834 5834 5834 5834 5834 5834 5834 5835 5835 5836 5836 5836 5837 5837 5837 5838 5838
5833 5833 5832 5832 5831 5831 5830 5830 5830 5830 5830 5830 5830 5830 5830 5830 5830 5830 5830 5830 5830 5830 5830 5830 5830 5830 5830 5830 5830 5830 5830 5830 5830 5830 5831 5831 5831 5832 5832 5832 5833 5833 5834
5830 5829 5829 5828 5828 5827 5827 5826 5826 5826 5826 5826 5826 5826 5826 5826 5826 5826 5826 5826 5826 5826 5826 5826 5826 5826 5826 5826 5826 5826 5826 5826 5826 5826 5826 5827 5827 5827 5827 5828 5828 5828 5829
5826 5825 5825 5824 5824 5823 5823 5822 5822 5822 5822 5822 5822 5822 5822 5822 5822 5822 5821 5821 5821 5822 5822 5822 5822 5822 5822 5822 5822 5822 5822 5821 5821 5821 5822 5822 5822 5822 5823 5823 5823 5824 5824
5823 5822 5821 5820 5820 5819 5818 5818 5818 5817 5817 5817 5817 5817 5818 5817 5817 5817 5817 5817 5817 5817 5817 5817 5817 5817 5817 5817 5817 5817 5817 5817 5817 5816 5816 5817 5817 5817 5818 5818 5818 5818 5818
5819 5818 5817 5816 5815 5815 5814 5814 5813 5813 5813 5813 5813 5813 5813 5812 5813 5813 5813 5813 5813 5813 5813 5813 5813 5813 5813 5813 5813 5813 5813 5812 5812 5812 5812 5812 5812 5812 5812 5812 5812 5813 5813
5815 5814 5813 5812 5811 5810 5809 5809 5808 5808 5808 5808 5808 5808 5808 5808 5808 5808 5808 5808 5808 5808 5808 5808 5808 5808 5808 5808 5808 5808 5808 5808 5807 5807 5807 5807 5807 5807 5807 5807 5807 5807 5807
5811 5810 5809 5808 5807 5806 5805 5804 5804 5803 5803 5803 5803 5803 5803 5803 5803 5803 5803 5803 5803 5804 5803 5803 5803 5803 5803 5803 5803 5803 5803 5802 5802 5802 5802 5801 5801 5801 5801 5801 5801 5801 5801
5807 5806 5805 5804 5803 5801 5801 5800 5799 5798 5798 5798 5797 5797 5797 5797 5797 5798 5798 5798 5798 5799 5798 5798 5798 5798 5798 5798 5798 5798 5797 5797 5797 5796 5796 5796 5796 5796 5796 5795 5795 5795 5795
5804 5802 5801 5799 5798 5797 5796 5795 5794 5794 5793 5793 5792 5792 5791 5791 5791 5792 5792 5792 5793 5793 5793 5792 5792 5792 5792 5792 5792 5792 5792 5792 5791 5791 5791 5790 5790 5790 5790 5790 5789 5789 5788
5799 5798 5797 5795 5794 5793 5792 5791 5790 5789 5788 5787 5787 5786 5786 5786 5785 5785 5786 5786 5786 5787 5787 5787 5786 5786 5786 5786 5786 5786 5786 5785 5785 5785 5785 5784 5784 5784 5784 5783 5783 5783 5782
5795 5793 5792 5790 5789 5788 5787 5785 5784 5783 5783 5782 5781 5781 5780 5780 5780 5779 5779 5780 5780 5780 5781 5780 5780 5780 5780 5780 5779 5779 5779 5779 5779 5779 5778 5778 5778 5778 5778 5777 5776 5776 5776
5790 5788 5787 5785 5784 5783 5781 5780 5779 5778 5777 5776 5775 5775 5774 5774 5774 5773 5773 5773 5773 5774 5774 5774 5774 5773 5773 5773 5773 5773 5772 5772 5772 5772 5772 5771 5771 5771 5771 5770 5770 5769 5769
5785 5784 5782 5780 5779 5777 5776 5775 5773 5772 5771 5770 5769 5769 5768 5768 5767 5767 5767 5767 5767 5767 5767 5767 5767 5767 5767 5766 5766 5766 5765 5765 5765 5764 5764 5764 5764 5764 5763 5763 5763 5762 5762
5781 5779 5777 5775 5773 5772 5770 5769 5767 5766 5765 5764 5763 5762 5762 5761 5761 5761 5760 5760 5760 5760 5760 5760 5760 5760 5760 5759 5759 5759 5758 5757 5757 5757 5757 5756 5756 5756 5756 5756 5756 5755 5754
5775 5774 5772 5770 5768 5766 5765 5763 5761 5760 5759 5758 5757 5756 5755 5755 5754 5754 5753 5753 5753 5753 5753 5753 5753 5753 5752 5752 5752 5751 5751 5750 5750 5749 5749 5748 5748 5748 5748 5748 5748 5747 5747
5770 5768 5766 5765 5763 5761 5759 5757 5756 5754 5753 5752 5750 5749 5748 5748 5747 5747 5746 5746 5745 5745 5745 5745 5745 5745 5745 5744 5744 5743 5743 5742 5742 5742 5741 5740 5739 5739 5739 5739 5739 5739 5739
5764 5763 5761 5759 5757 5755 5753 5751 5749 5748 5746 5745 5744 5743 5741 5740 5740 5739 5739 5738 5738 5737 5738 5738 5737 5737 5737 5737 5736 5735 5734 5734 5733 5733 5732 5732 5731 5730 5730 5730 5730 5731 5731
5758 5757 5755 5753 5751 5749 5747 5745 5743 5741 5740 5738 5737 5735 5734 5733 5732 5732 5731 5731 5730 5730 5730 5729 5729 5729 5729 5728 5728 5727 5726 5725 5725 5724 5723 5723 5722 5722 5721 5721 5721 5721 5722
5752 5750 5749 5746 5744 5742 5740 5738 5736 5734 5732 5731 5729 5727 5726 5726 5725 5724 5723 5723 5722 5722 5721 5721 5721 5720 5720 5719 5719 5718 5717 5717 5716 5715 5714 5713 5713 5712 5712 5712 5712 5712 5713
5746 5744 5742 5740 5738 5735 5733 5730 5728 5726 5725 5723 5721 5720 5718 5717 5716 5715 5715 5714 5713 5713 5712 5712 5712 5711 5711 5710 5709 5708 5708 5707 5706 5705 5704 5704 5703 5702 5703 5703 5703 5703 5703